Location: Helsinki
(60.1699°N, 24.9384°E)
Time: 23:53:48
(UTC+02:00)

Altair - Pass Details

Date: 02 November 2020
Orbit: 1502 x 1682 km, 47.2° (Epoch: 25 November)

Event Time Altitude Azimuth Distance (km) Brightness Sun altitude
Rises 09:59:35 0° 275° (W) 4,721 9.7 10.8°
Reaches altitude 10° 10:03:24 10° 262° (W) 3,764 9.4 11.1°
Maximum altitude 10:10:18 23° 215° (SW) 2,905 9.4 11.5°
Drops below altitude 10° 10:17:23 10° 168° (SSE) 3,861 11.6 11.9°
Sets 10:21:23 0° 155° (SSE) 4,871 12.3 12.1°
